| time (UTC) | temp F | wind direction | speed knots | gust knots | rain 1hr in | rain 24hr in | rain mn in | humidity % | barometer mb |
| 20260903042521 | 65 | 132 | 2.6 | 6.1 | 0.00 | 0.00 | 0.00 | 81 | 1018.6 |
| 20260903042041 | 65 | 129 | 0.9 | 2.6 | 0.00 | 0.00 | 0.00 | 81 | 1018.5 |
| 20260903041521 | 65 | 142 | 0.9 | 1.7 | 0.00 | 0.00 | 0.00 | 81 | 1018.7 |
| 20260903041021 | 65 | 143 | 1.7 | 6.1 | 0.00 | 0.00 | 0.00 | 81 | 1018.7 |
| 20260903040521 | 65 | 159 | 0.9 | 3.5 | 0.00 | 0.00 | 0.00 | 81 | 1018.7 |
| 20260903040020 | 65 | 154 | 0.9 | 2.6 | 0.00 | 0.00 | 0.00 | 82 | 1018.6 |
| 20260903035520 | 66 | 144 | 0.9 | 2.6 | 0.00 | 0.00 | 0.00 | 81 | 1018.4 |
| 20260903035040 | 66 | 125 | 0.9 | 3.5 | 0.00 | 0.00 | 0.00 | 81 | 1018.6 |
| 20260903034519 | 66 | 119 | 0.0 | 1.7 | 0.00 | 0.00 | 0.00 | 81 | 1018.6 |
| 20260903034019 | 66 | 128 | 0.9 | 3.5 | 0.00 | 0.00 | 0.00 | 81 | 1018.7 |
| 20260903033521 | 66 | 146 | 1.7 | 6.1 | 0.00 | 0.00 | 0.00 | 81 | 1018.7 |
| 20260903033021 | 66 | 141 | 1.7 | 6.1 | 0.00 | 0.00 | 0.00 | 81 | 1018.9 |
| 20260903032521 | 66 | 181 | 1.7 | 3.5 | 0.00 | 0.00 | 0.00 | 81 | 1019.1 |
| 20260903032040 | 66 | 121 | 0.9 | 2.6 | 0.00 | 0.00 | 0.00 | 82 | 1019.0 |
| 20260903031520 | 66 | 177 | 0.9 | 3.5 | 0.00 | 0.00 | 0.00 | 82 | 1019.1 |
| 20260903031020 | 66 | 115 | 0.9 | 3.5 | 0.00 | 0.00 | 0.00 | 82 | 1019.2 |
| 20260903030520 | 66 | 186 | 0.9 | 2.6 | 0.00 | 0.00 | 0.00 | 82 | 1019.2 |
| 20260903030020 | 66 | 147 | 0.9 | 2.6 | 0.00 | 0.00 | 0.00 | 82 | 1019.2 |
| 20260903025521 | 66 | 189 | 0.0 | 1.7 | 0.00 | 0.00 | 0.00 | 82 | 1019.4 |
| 20260903025041 | 66 | 178 | 0.9 | 2.6 | 0.00 | 0.00 | 0.00 | 82 | 1019.5 |
| 20260903024521 | 66 | 161 | 1.7 | 3.5 | 0.00 | 0.00 | 0.00 | 82 | 1019.5 |
| 20260903024021 | 66 | 172 | 0.9 | 2.6 | 0.00 | 0.00 | 0.00 | 82 | 1019.4 |
| 20260903023520 | 66 | 135 | 0.0 | 0.9 | 0.00 | 0.00 | 0.00 | 82 | 1019.4 |
| 20260903023020 | 66 | 0.0 | 0.9 | 0.00 | 0.00 | 0.00 | 81 | 1019.4 | |
| 20260903022520 | 66 | 136 | 0.0 | 0.9 | 0.00 | 0.00 | 0.00 | 81 | 1019.4 |
| 20260903022020 | 66 | 141 | 0.9 | 2.6 | 0.00 | 0.00 | 0.00 | 81 | 1019.5 |
| 20260903021521 | 66 | 135 | 0.9 | 2.6 | 0.00 | 0.00 | 0.00 | 81 | 1019.3 |
| 20260903021046 | 66 | 134 | 2.6 | 6.1 | 0.00 | 0.00 | 0.00 | 81 | 1019.5 |
| 20260903020521 | 66 | 125 | 1.7 | 6.1 | 0.00 | 0.00 | 0.00 | 81 | 1019.5 |
| 20260903020101 | 66 | 129 | 0.9 | 5.2 | 0.00 | 0.00 | 0.00 | 81 | 1019.7 |
| 20260903015521 | 66 | 176 | 0.9 | 5.2 | 0.00 | 0.00 | 0.00 | 82 | 1019.6 |
| 20260903015040 | 66 | 166 | 0.9 | 5.2 | 0.00 | 0.00 | 0.00 | 82 | 1019.4 |
| 20260903014602 | 66 | 143 | 1.7 | 2.6 | 0.00 | 0.00 | 0.00 | 82 | 1019.5 |
| 20260903014022 | 66 | 129 | 0.9 | 2.6 | 0.00 | 0.00 | 0.00 | 82 | 1019.5 |
| 20260903013521 | 66 | 132 | 0.9 | 2.6 | 0.00 | 0.00 | 0.00 | 83 | 1019.3 |
| 20260903013041 | 66 | 127 | 1.7 | 5.2 | 0.00 | 0.00 | 0.00 | 82 | 1019.2 |
| 20260903012521 | 66 | 137 | 1.7 | 5.2 | 0.00 | 0.00 | 0.00 | 82 | 1019.4 |
| 20260903012041 | 66 | 138 | 0.9 | 2.6 | 0.00 | 0.00 | 0.00 | 83 | 1019.4 |
| 20260903011521 | 66 | 151 | 0.9 | 5.2 | 0.00 | 0.00 | 0.00 | 82 | 1019.5 |
| 20260903011020 | 66 | 134 | 1.7 | 5.2 | 0.00 | 0.00 | 0.00 | 82 | 1019.6 |
| 20260903010520 | 66 | 123 | 2.6 | 5.2 | 0.00 | 0.00 | 0.00 | 82 | 1019.4 |
| 20260903010022 | 66 | 131 | 2.6 | 6.1 | 0.00 | 0.00 | 0.00 | 82 | 1019.6 |
| 20260903005521 | 66 | 130 | 1.7 | 7.0 | 0.00 | 0.00 | 0.00 | 82 | 1019.6 |
| 20260903005021 | 66 | 125 | 1.7 | 8.7 | 0.00 | 0.00 | 0.00 | 82 | 1019.8 |
| 20260903004521 | 66 | 125 | 2.6 | 8.7 | 0.00 | 0.00 | 0.00 | 82 | 1019.5 |
| 20260903004041 | 66 | 138 | 4.3 | 7.8 | 0.00 | 0.00 | 0.00 | 82 | 1019.5 |
| 20260903003525 | 66 | 127 | 1.7 | 5.2 | 0.00 | 0.00 | 0.00 | 82 | 1019.6 |
| 20260903003024 | 66 | 137 | 2.6 | 6.1 | 0.00 | 0.00 | 0.00 | 81 | 1019.5 |
| 20260903002522 | 66 | 129 | 1.7 | 7.0 | 0.00 | 0.00 | 0.00 | 81 | 1019.6 |
| 20260903002021 | 66 | 124 | 2.6 | 7.0 | 0.00 | 0.00 | 0.00 | 80 | 1019.7 |
| 20260903001521 | 66 | 133 | 2.6 | 6.1 | 0.00 | 0.00 | 0.00 | 80 | 1019.8 |
| 20260903001021 | 66 | 119 | 2.6 | 7.8 | 0.00 | 0.00 | 0.00 | 79 | 1020.0 |
| 20260903000520 | 66 | 136 | 1.7 | 5.2 | 0.00 | 0.00 | 0.00 | 79 | 1020.0 |
| 20260903000021 | 66 | 125 | 1.7 | 3.5 | 0.00 | 0.00 | 0.00 | 79 | 1020.1 |
| 20260902235520 | 66 | 137 | 1.7 | 3.5 | 0.00 | 0.00 | 0.00 | 79 | 1020.2 |
| 20260902235042 | 66 | 131 | 0.9 | 2.6 | 0.00 | 0.00 | 0.00 | 79 | 1020.3 |
| 20260902234523 | 66 | 112 | 1.7 | 5.2 | 0.00 | 0.00 | 0.00 | 80 | 1020.2 |
| 20260902234022 | 66 | 144 | 0.9 | 5.2 | 0.00 | 0.00 | 0.00 | 80 | 1020.2 |
| 20260902233521 | 66 | 127 | 0.9 | 2.6 | 0.00 | 0.00 | 0.00 | 79 | 1020.3 |
| 20260902233021 | 66 | 140 | 1.7 | 5.2 | 0.00 | 0.00 | 0.00 | 79 | 1020.3 |
| 20260902232521 | 66 | 136 | 2.6 | 6.1 | 0.00 | 0.00 | 0.00 | 79 | 1020.4 |
| 20260902232021 | 66 | 119 | 2.6 | 6.1 | 0.00 | 0.00 | 0.00 | 79 | 1020.4 |
| 20260902231520 | 67 | 110 | 0.9 | 2.6 | 0.00 | 0.00 | 0.00 | 78 | 1020.3 |
| 20260902231020 | 67 | 115 | 2.6 | 6.1 | 0.00 | 0.00 | 0.00 | 78 | 1020.3 |
| 20260902230525 | 67 | 106 | 2.6 | 5.2 | 0.00 | 0.00 | 0.00 | 77 | 1020.5 |
| 20260902230022 | 67 | 102 | 2.6 | 6.1 | 0.00 | 0.00 | 0.00 | 76 | 1020.4 |
| 20260902225522 | 67 | 97 | 2.6 | 6.1 | 0.00 | 0.00 | 0.00 | 75 | 1020.4 |
| 20260902225021 | 67 | 92 | 2.6 | 8.7 | 0.00 | 0.00 | 0.00 | 74 | 1020.5 |
| 20260902224521 | 68 | 111 | 3.5 | 8.7 | 0.00 | 0.00 | 0.00 | 73 | 1020.4 |
| 20260902224020 | 68 | 124 | 3.5 | 8.7 | 0.00 | 0.00 | 0.00 | 72 | 1020.6 |
| 20260902223521 | 68 | 136 | 2.6 | 7.0 | 0.00 | 0.00 | 0.00 | 72 | 1020.8 |
| 20260902223024 | 68 | 113 | 3.5 | 7.8 | 0.00 | 0.00 | 0.00 | 72 | 1020.8 |
| 20260902222523 | 68 | 132 | 3.5 | 7.8 | 0.00 | 0.00 | 0.00 | 72 | 1020.8 |
| 20260902222042 | 68 | 133 | 2.6 | 7.8 | 0.00 | 0.00 | 0.00 | 72 | 1020.8 |
| 20260902221521 | 68 | 110 | 3.5 | 7.0 | 0.00 | 0.00 | 0.00 | 72 | 1020.6 |
| 20260902221021 | 68 | 114 | 2.6 | 9.6 | 0.00 | 0.00 | 0.00 | 72 | 1020.6 |
| 20260902220521 | 68 | 105 | 3.5 | 9.6 | 0.00 | 0.00 | 0.00 | 71 | 1020.6 |
| 20260902220020 | 69 | 112 | 2.6 | 7.8 | 0.00 | 0.00 | 0.00 | 71 | 1020.6 |
| 20260902215520 | 69 | 119 | 5.2 | 9.6 | 0.00 | 0.00 | 0.00 | 70 | 1020.5 |
| 20260902215040 | 69 | 110 | 3.5 | 8.7 | 0.00 | 0.00 | 0.00 | 71 | 1020.5 |
| 20260902214522 | 69 | 96 | 3.5 | 7.8 | 0.00 | 0.00 | 0.00 | 72 | 1020.5 |
| 20260902214022 | 69 | 102 | 3.5 | 8.7 | 0.00 | 0.00 | 0.00 | 71 | 1020.3 |
| 20260902213602 | 69 | 108 | 3.5 | 9.6 | 0.00 | 0.00 | 0.00 | 70 | 1020.3 |
| 20260902213021 | 69 | 109 | 4.3 | 9.6 | 0.00 | 0.00 | 0.00 | 70 | 1020.1 |
| 20260902212521 | 70 | 121 | 5.2 | 18.2 | 0.00 | 0.00 | 0.00 | 69 | 1020.1 |
| 20260902212021 | 70 | 110 | 5.2 | 18.2 | 0.00 | 0.00 | 0.00 | 70 | 1020.0 |
| 20260902211520 | 70 | 126 | 4.3 | 13.0 | 0.00 | 0.00 | 0.00 | 69 | 1020.1 |
| 20260902211020 | 70 | 106 | 3.5 | 8.7 | 0.00 | 0.00 | 0.00 | 70 | 1020.1 |
| 20260902210522 | 70 | 109 | 2.6 | 8.7 | 0.00 | 0.00 | 0.00 | 70 | 1020.3 |
| 20260902210021 | 70 | 83 | 5.2 | 9.6 | 0.00 | 0.00 | 0.00 | 69 | 1020.3 |
| 20260902205522 | 70 | 92 | 5.2 | 11.3 | 0.00 | 0.00 | 0.00 | 69 | 1020.4 |
| 20260902205021 | 70 | 113 | 5.2 | 13.0 | 0.00 | 0.00 | 0.00 | 70 | 1020.5 |
| 20260902204602 | 70 | 114 | 4.3 | 13.0 | 0.00 | 0.01 | 0.00 | 71 | 1020.7 |
| 20260902204021 | 70 | 104 | 4.3 | 8.7 | 0.00 | 0.01 | 0.00 | 71 | 1020.7 |
| 20260902203520 | 70 | 132 | 4.3 | 9.6 | 0.00 | 0.01 | 0.00 | 70 | 1020.8 |
| 20260902203040 | 70 | 108 | 3.5 | 9.6 | 0.00 | 0.01 | 0.00 | 70 | 1020.9 |
| 20260902202520 | 70 | 92 | 4.3 | 9.6 | 0.00 | 0.01 | 0.00 | 70 | 1020.9 |
| 20260902202022 | 70 | 85 | 4.3 | 12.2 | 0.00 | 0.02 | 0.00 | 68 | 1021.0 |
| 20260902201540 | 70 | 106 | 4.3 | 11.3 | 0.00 | 0.02 | 0.00 | 69 | 1021.1 |
| 20260902201021 | 70 | 97 | 5.2 | 9.6 | 0.00 | 0.02 | 0.00 | 69 | 1021.0 |
| 20260902200521 | 70 | 104 | 4.3 | 8.7 | 0.00 | 0.02 | 0.00 | 70 | 1021.1 |
| 20260902200020 | 71 | 97 | 2.6 | 7.8 | 0.00 | 0.02 | 0.00 | 69 | 1021.0 |
| 20260902195521 | 71 | 95 | 3.5 | 7.8 | 0.00 | 0.02 | 0.00 | 68 | 1020.9 |
| 20260902195020 | 71 | 96 | 4.3 | 9.6 | 0.00 | 0.02 | 0.00 | 66 | 1021.0 |
| 20260902194520 | 71 | 88 | 3.5 | 9.6 | 0.00 | 0.02 | 0.00 | 66 | 1021.0 |
| 20260902194020 | 71 | 120 | 3.5 | 9.6 | 0.00 | 0.02 | 0.00 | 65 | 1021.0 |
| 20260902193541 | 71 | 106 | 3.5 | 9.6 | 0.00 | 0.03 | 0.00 | 63 | 1021.1 |
| 20260902193026 | 71 | 111 | 3.5 | 9.6 | 0.00 | 0.04 | 0.00 | 63 | 1021.0 |
| 20260902192521 | 71 | 104 | 4.3 | 9.6 | 0.00 | 0.04 | 0.00 | 62 | 1021.0 |
| 20260902192021 | 72 | 100 | 4.3 | 9.6 | 0.00 | 0.05 | 0.00 | 62 | 1021.0 |
| 20260902191545 | 72 | 86 | 4.3 | 11.3 | 0.00 | 0.05 | 0.00 | 59 | 1021.2 |
| 20260902191020 | 72 | 110 | 3.5 | 9.6 | 0.00 | 0.06 | 0.00 | 60 | 1021.3 |
| 20260902190522 | 72 | 135 | 3.5 | 8.7 | 0.00 | 0.07 | 0.00 | 59 | 1021.3 |
| 20260902190021 | 72 | 100 | 3.5 | 7.8 | 0.00 | 0.08 | 0.00 | 59 | 1021.3 |
| 20260902185521 | 72 | 101 | 3.5 | 11.3 | 0.00 | 0.11 | 0.00 | 58 | 1021.3 |
| 20260902185021 | 72 | 87 | 4.3 | 8.7 | 0.00 | 0.14 | 0.00 | 57 | 1021.2 |
| 20260902184521 | 73 | 85 | 3.5 | 7.8 | 0.00 | 0.16 | 0.00 | 58 | 1021.1 |
| 20260902184021 | 73 | 84 | 3.5 | 11.3 | 0.00 | 0.18 | 0.00 | 60 | 1021.2 |
| 20260902183520 | 73 | 92 | 3.5 | 11.3 | 0.00 | 0.19 | 0.00 | 59 | 1021.1 |
| 20260902183044 | 73 | 131 | 5.2 | 9.6 | 0.00 | 0.20 | 0.00 | 56 | 1021.0 |
| 20260902182520 | 72 | 134 | 3.5 | 9.6 | 0.00 | 0.21 | 0.00 | 58 | 1021.1 |
| 20260902182020 | 72 | 91 | 3.5 | 9.6 | 0.00 | 0.22 | 0.00 | 59 | 1021.1 |
| 20260902181520 | 72 | 113 | 4.3 | 9.6 | 0.00 | 0.23 | 0.00 | 58 | 1021.2 |
| 20260902181022 | 72 | 88 | 5.2 | 12.2 | 0.00 | 0.25 | 0.00 | 58 | 1021.1 |
| 20260902180522 | 72 | 92 | 4.3 | 12.2 | 0.00 | 0.28 | 0.00 | 56 | 1021.1 |
| 20260902180021 | 72 | 104 | 6.1 | 13.0 | 0.00 | 0.29 | 0.00 | 57 | 1021.2 |
| 20260902175521 | 72 | 120 | 3.5 | 9.6 | 0.00 | 0.31 | 0.00 | 58 | 1021.2 |
| 20260902175021 | 72 | 91 | 3.5 | 7.8 | 0.00 | 0.34 | 0.00 | 59 | 1021.2 |
| 20260902174521 | 72 | 104 | 4.3 | 11.3 | 0.00 | 0.37 | 0.00 | 59 | 1021.3 |
| 20260902174021 | 73 | 102 | 5.2 | 12.2 | 0.00 | 0.39 | 0.00 | 57 | 1021.3 |
| 20260902173520 | 73 | 89 | 5.2 | 11.3 | 0.00 | 0.41 | 0.00 | 59 | 1021.2 |
| 20260902173022 | 74 | 117 | 3.5 | 7.0 | 0.00 | 0.42 | 0.00 | 57 | 1021.2 |
| 20260902172522 | 74 | 127 | 2.6 | 6.1 | 0.00 | 0.43 | 0.00 | 60 | 1021.2 |
| 20260902172021 | 74 | 114 | 2.6 | 7.0 | 0.00 | 0.43 | 0.00 | 60 | 1021.3 |
| 20260902171519 | 74 | 119 | 4.3 | 9.6 | 0.00 | 0.44 | 0.00 | 59 | 1021.4 |
| 20260902171021 | 74 | 161 | 3.5 | 7.8 | 0.00 | 0.45 | 0.00 | 58 | 1021.4 |
| 20260902170521 | 74 | 126 | 4.3 | 11.3 | 0.00 | 0.47 | 0.00 | 59 | 1021.4 |
| 20260902170040 | 74 | 137 | 3.5 | 8.7 | 0.00 | 0.48 | 0.00 | 63 | 1021.5 |
| 20260902165520 | 73 | 140 | 3.5 | 9.6 | 0.00 | 0.48 | 0.00 | 63 | 1021.6 |
| 20260902165020 | 73 | 102 | 4.3 | 9.6 | 0.00 | 0.48 | 0.00 | 63 | 1021.6 |
| 20260902164522 | 73 | 93 | 1.7 | 9.6 | 0.00 | 0.48 | 0.00 | 64 | 1021.6 |
| 20260902164042 | 73 | 81 | 3.5 | 8.7 | 0.00 | 0.48 | 0.00 | 68 | 1021.6 |
| 20260902163541 | 73 | 102 | 3.5 | 8.7 | 0.00 | 0.48 | 0.00 | 65 | 1021.8 |
| 20260902163021 | 72 | 103 | 2.6 | 7.8 | 0.00 | 0.48 | 0.00 | 67 | 1021.7 |
| 20260902162521 | 72 | 95 | 2.6 | 7.0 | 0.00 | 0.48 | 0.00 | 67 | 1021.7 |
| 20260902162021 | 72 | 101 | 3.5 | 8.7 | 0.00 | 0.48 | 0.00 | 68 | 1021.8 |
| 20260902161520 | 72 | 136 | 2.6 | 6.1 | 0.00 | 0.48 | 0.00 | 69 | 1021.7 |
| 20260902161040 | 72 | 150 | 3.5 | 7.8 | 0.00 | 0.48 | 0.00 | 68 | 1021.8 |
| 20260902160605 | 72 | 143 | 4.3 | 7.8 | 0.00 | 0.48 | 0.00 | 68 | 1021.8 |
| 20260902160020 | 71 | 137 | 4.3 | 7.8 | 0.00 | 0.48 | 0.00 | 70 | 1021.9 |
| 20260902155519 | 71 | 135 | 2.6 | 6.1 | 0.00 | 0.48 | 0.00 | 73 | 1021.9 |
| 20260902155019 | 71 | 104 | 3.5 | 7.0 | 0.00 | 0.48 | 0.00 | 73 | 1022.0 |
| 20260902154521 | 71 | 86 | 3.5 | 7.8 | 0.00 | 0.48 | 0.00 | 72 | 1022.1 |
| 20260902154021 | 71 | 102 | 2.6 | 7.0 | 0.00 | 0.48 | 0.00 | 72 | 1022.2 |
| 20260902153541 | 71 | 110 | 2.6 | 6.1 | 0.00 | 0.48 | 0.00 | 73 | 1022.3 |
| 20260902153020 | 70 | 110 | 3.5 | 7.0 | 0.00 | 0.48 | 0.00 | 74 | 1022.4 |
| 20260902152520 | 70 | 124 | 3.5 | 6.1 | 0.00 | 0.48 | 0.00 | 74 | 1022.3 |
| 20260902152020 | 70 | 107 | 3.5 | 7.0 | 0.00 | 0.48 | 0.00 | 76 | 1022.3 |
| 20260902151519 | 70 | 136 | 2.6 | 7.0 | 0.00 | 0.48 | 0.00 | 78 | 1022.4 |
| 20260902151019 | 70 | 82 | 2.6 | 7.0 | 0.00 | 0.48 | 0.00 | 77 | 1022.3 |
| 20260902150521 | 70 | 81 | 2.6 | 6.1 | 0.00 | 0.48 | 0.00 | 78 | 1022.4 |
| 20260902150021 | 70 | 68 | 2.6 | 7.0 | 0.00 | 0.48 | 0.00 | 78 | 1022.2 |
| 20260902145521 | 70 | 118 | 2.6 | 7.0 | 0.00 | 0.48 | 0.00 | 78 | 1022.3 |
| 20260902145046 | 70 | 97 | 2.6 | 7.0 | 0.00 | 0.48 | 0.00 | 79 | 1022.1 |
| 20260902144520 | 70 | 114 | 2.6 | 7.8 | 0.00 | 0.48 | 0.00 | 80 | 1022.1 |
| 20260902144020 | 69 | 119 | 2.6 | 8.7 | 0.00 | 0.48 | 0.00 | 81 | 1022.0 |
| 20260902143519 | 69 | 99 | 2.6 | 8.7 | 0.00 | 0.48 | 0.00 | 82 | 1022.0 |
| 20260902143019 | 69 | 92 | 1.7 | 7.8 | 0.00 | 0.48 | 0.00 | 82 | 1022.0 |
| 20260902142521 | 69 | 129 | 3.5 | 7.8 | 0.00 | 0.48 | 0.00 | 82 | 1022.1 |
| 20260902142021 | 69 | 115 | 3.5 | 8.7 | 0.00 | 0.48 | 0.00 | 82 | 1021.7 |
| 20260902141519 | 69 | 118 | 3.5 | 8.7 | 0.00 | 0.48 | 0.00 | 83 | 1021.7 |
| 20260902141020 | 68 | 105 | 4.3 | 8.7 | 0.00 | 0.48 | 0.00 | 85 | 1021.6 |
| 20260902140520 | 68 | 102 | 3.5 | 9.6 | 0.00 | 0.48 | 0.00 | 85 | 1021.6 |
| 20260902140020 | 68 | 111 | 3.5 | 9.6 | 0.00 | 0.48 | 0.00 | 87 | 1021.5 |
| 20260902135520 | 68 | 117 | 2.6 | 8.7 | 0.00 | 0.48 | 0.00 | 88 | 1021.5 |
| 20260902135020 | 68 | 88 | 2.6 | 11.3 | 0.00 | 0.48 | 0.00 | 90 | 1021.4 |
| 20260902134519 | 67 | 98 | 2.6 | 7.8 | 0.00 | 0.48 | 0.00 | 92 | 1021.4 |
| 20260902134026 | 67 | 101 | 2.6 | 6.1 | 0.00 | 0.48 | 0.00 | 92 | 1021.3 |
| 20260902133541 | 67 | 107 | 3.5 | 6.1 | 0.00 | 0.48 | 0.00 | 93 | 1021.3 |
| 20260902133021 | 67 | 81 | 2.6 | 6.1 | 0.00 | 0.49 | 0.00 | 96 | 1021.3 |
| 20260902132540 | 66 | 93 | 0.9 | 2.6 | 0.00 | 0.50 | 0.00 | 98 | 1021.3 |
| 20260902132041 | 66 | 79 | 0.9 | 1.7 | 0.00 | 0.50 | 0.00 | 98 | 1021.3 |
| 20260902131540 | 65 | 104 | 0.9 | 1.7 | 0.00 | 0.51 | 0.00 | 99 | 1021.5 |
| 20260902131020 | 65 | 88 | 0.9 | 2.6 | 0.00 | 0.52 | 0.00 | 99 | 1021.5 |
| 20260902130520 | 65 | 0.0 | 0.0 | 0.00 | 0.52 | 0.00 | 99 | 1021.6 | |
| 20260902130019 | 64 | 340 | 0.0 | 1.7 | 0.00 | 0.53 | 0.00 | 99 | 1021.6 |
| 20260902125521 | 64 | 289 | 0.0 | 1.7 | 0.00 | 0.54 | 0.00 | 99 | 1021.6 |
| 20260902125021 | 64 | 186 | 0.0 | 0.9 | 0.00 | 0.55 | 0.00 | 99 | 1021.6 |
| 20260902124520 | 64 | 0.0 | 0.0 | 0.00 | 0.56 | 0.00 | 99 | 1021.8 | |
| 20260902124020 | 64 | 186 | 0.0 | 0.9 | 0.00 | 0.57 | 0.00 | 99 | 1021.8 |
| 20260902123520 | 64 | 187 | 0.0 | 0.9 | 0.00 | 0.59 | 0.00 | 99 | 1021.8 |
| 20260902123022 | 63 | 0.0 | 0.0 | 0.00 | 0.60 | 0.00 | 99 | 1021.7 | |
| 20260902122540 | 63 | 0.0 | 0.0 | 0.00 | 0.61 | 0.00 | 99 | 1021.7 | |
| 20260902122020 | 63 | 0.0 | 0.0 | 0.00 | 0.61 | 0.00 | 99 | 1021.9 | |
| 20260902121519 | 63 | 0.0 | 0.0 | 0.00 | 0.61 | 0.00 | 99 | 1021.9 | |
| 20260902121039 | 63 | 0.0 | 0.0 | 0.00 | 0.61 | 0.00 | 99 | 1021.9 | |
| 20260902120521 | 63 | 0.0 | 0.0 | 0.00 | 0.61 | 0.00 | 99 | 1022.0 | |
| 20260902120041 | 62 | 0.0 | 0.0 | 0.00 | 0.61 | 0.00 | 99 | 1021.9 | |
| 20260902115519 | 62 | 0.0 | 0.0 | 0.00 | 0.61 | 0.00 | 99 | 1021.9 | |
| 20260902115021 | 62 | 0.0 | 0.0 | 0.00 | 0.61 | 0.00 | 99 | 1022.0 | |
| 20260902114521 | 62 | 186 | 0.0 | 0.9 | 0.00 | 0.61 | 0.00 | 99 | 1022.0 |
| 20260902114020 | 62 | 0.0 | 0.0 | 0.00 | 0.61 | 0.00 | 99 | 1022.0 | |
| 20260902113522 | 62 | 0.0 | 0.0 | 0.00 | 0.61 | 0.00 | 99 | 1022.0 | |
| 20260902113020 | 62 | 0.0 | 0.0 | 0.00 | 0.61 | 0.00 | 99 | 1021.9 | |
| 20260902112540 | 62 | 0.0 | 0.0 | 0.00 | 0.61 | 0.00 | 99 | 1021.8 | |
| 20260902112019 | 62 | 0.0 | 0.0 | 0.00 | 0.61 | 0.00 | 99 | 1021.9 | |
| 20260902111539 | 61 | 0.0 | 0.0 | 0.00 | 0.61 | 0.00 | 99 | 1021.8 | |
| 20260902111019 | 61 | 0.0 | 0.0 | 0.00 | 0.61 | 0.00 | 99 | 1021.7 | |
| 20260902110519 | 61 | 0.0 | 0.0 | 0.00 | 0.61 | 0.00 | 99 | 1021.7 | |
| 20260902110039 | 61 | 0.0 | 0.0 | 0.00 | 0.61 | 0.00 | 99 | 1021.4 | |
| 20260902105539 | 61 | 0.0 | 0.0 | 0.00 | 0.61 | 0.00 | 99 | 1021.4 | |
| 20260902105020 | 61 | 0.0 | 0.0 | 0.00 | 0.61 | 0.00 | 99 | 1021.3 | |
| 20260902104520 | 61 | 0.0 | 0.0 | 0.00 | 0.61 | 0.00 | 99 | 1021.3 | |
| 20260902104020 | 61 | 0.0 | 0.0 | 0.00 | 0.61 | 0.00 | 99 | 1021.2 | |
| 20260902103519 | 61 | 0.0 | 0.0 | 0.00 | 0.61 | 0.00 | 99 | 1021.3 | |
| 20260902103019 | 61 | 0.0 | 0.0 | 0.00 | 0.61 | 0.00 | 99 | 1021.3 | |
| 20260902102519 | 61 | 0.0 | 0.0 | 0.00 | 0.61 | 0.00 | 99 | 1021.2 | |
| 20260902102019 | 61 | 0.0 | 0.0 | 0.00 | 0.61 | 0.00 | 99 | 1021.1 | |
| 20260902101518 | 61 | 0.0 | 0.0 | 0.00 | 0.61 | 0.00 | 99 | 1021.1 | |
| 20260902101020 | 61 | 0.0 | 0.0 | 0.00 | 0.61 | 0.00 | 99 | 1021.0 | |
| 20260902100601 | 60 | 0.0 | 0.0 | 0.00 | 0.61 | 0.00 | 99 | 1020.9 | |
| 20260902100019 | 60 | 0.0 | 0.0 | 0.00 | 0.61 | 0.00 | 99 | 1020.9 | |
| 20260902095519 | 61 | 0.0 | 0.0 | 0.00 | 0.61 | 0.00 | 99 | 1020.9 | |
| 20260902095019 | 60 | 0.0 | 0.0 | 0.00 | 0.61 | 0.00 | 99 | 1020.9 | |
| 20260902094524 | 60 | 0.0 | 0.0 | 0.00 | 0.61 | 0.00 | 99 | 1020.8 | |
| 20260902094021 | 60 | 0.0 | 0.0 | 0.00 | 0.61 | 0.00 | 99 | 1020.6 | |
| 20260902093601 | 60 | 0.0 | 0.0 | 0.00 | 0.61 | 0.00 | 99 | 1020.7 | |
| 20260902093021 | 60 | 0.0 | 0.0 | 0.00 | 0.61 | 0.00 | 99 | 1020.6 | |
| 20260902092520 | 60 | 0.0 | 0.0 | 0.00 | 0.61 | 0.00 | 99 | 1020.5 | |
| 20260902092020 | 60 | 0.0 | 0.0 | 0.00 | 0.61 | 0.00 | 99 | 1020.5 | |
| 20260902091519 | 60 | 0.0 | 0.0 | 0.00 | 0.61 | 0.00 | 99 | 1020.7 | |
| 20260902091019 | 60 | 0.0 | 0.0 | 0.00 | 0.61 | 0.00 | 99 | 1020.8 | |
| 20260902090519 | 60 | 0.0 | 0.0 | 0.00 | 0.61 | 0.00 | 99 | 1020.5 | |
| 20260902090021 | 60 | 0.0 | 0.0 | 0.00 | 0.61 | 0.00 | 99 | 1020.5 | |
| 20260902085521 | 61 | 0.0 | 0.0 | 0.00 | 0.61 | 0.00 | 99 | 1020.6 | |
| 20260902085020 | 61 | 0.0 | 0.0 | 0.00 | 0.61 | 0.00 | 99 | 1020.5 | |
| 20260902084541 | 61 | 0.0 | 0.0 | 0.00 | 0.61 | 0.00 | 99 | 1020.4 | |
| 20260902084020 | 61 | 0.0 | 0.0 | 0.00 | 0.61 | 0.00 | 99 | 1020.4 | |
| 20260902083520 | 61 | 186 | 0.0 | 0.9 | 0.00 | 0.61 | 0.00 | 99 | 1020.4 |
| 20260902083019 | 61 | 0.0 | 0.0 | 0.00 | 0.61 | 0.00 | 99 | 1020.3 | |
| 20260902082519 | 61 | 0.0 | 0.0 | 0.00 | 0.61 | 0.00 | 99 | 1020.4 | |
| 20260902082021 | 62 | 0.0 | 0.0 | 0.00 | 0.61 | 0.00 | 99 | 1020.5 | |
| 20260902081519 | 62 | 0.0 | 0.0 | 0.00 | 0.61 | 0.00 | 99 | 1020.4 | |
| 20260902081020 | 62 | 0.0 | 0.0 | 0.00 | 0.61 | 0.00 | 99 | 1020.4 | |
| 20260902080520 | 62 | 0.0 | 0.0 | 0.00 | 0.61 | 0.00 | 99 | 1020.4 | |
| 20260902080040 | 62 | 0.0 | 0.0 | 0.00 | 0.61 | 0.00 | 99 | 1020.4 | |
| 20260902075520 | 62 | 0.0 | 0.0 | 0.00 | 0.61 | 0.00 | 99 | 1020.4 | |
| 20260902075019 | 62 | 0.0 | 0.0 | 0.00 | 0.61 | 0.00 | 99 | 1020.4 | |
| 20260902074519 | 62 | 0.0 | 0.0 | 0.00 | 0.61 | 0.00 | 99 | 1020.6 | |
| 20260902074019 | 62 | 0.0 | 0.0 | 0.00 | 0.61 | 0.00 | 99 | 1020.7 | |
| 20260902073521 | 62 | 0.0 | 0.0 | 0.00 | 0.61 | 0.00 | 99 | 1020.7 | |
| 20260902073040 | 62 | 0.0 | 0.0 | 0.00 | 0.61 | 0.00 | 99 | 1020.6 | |
| 20260902072520 | 62 | 0.0 | 0.0 | 0.00 | 0.61 | 0.00 | 99 | 1020.5 | |
| 20260902072020 | 62 | 0.0 | 0.0 | 0.00 | 0.61 | 0.00 | 99 | 1020.5 | |
| 20260902071520 | 62 | 0.0 | 0.0 | 0.00 | 0.61 | 0.00 | 99 | 1020.4 | |
| 20260902071019 | 62 | 0.0 | 0.0 | 0.00 | 0.61 | 0.00 | 99 | 1020.3 | |
| 20260902070519 | 62 | 0.0 | 0.0 | 0.00 | 0.61 | 0.00 | 99 | 1020.3 | |
| 20260902070041 | 62 | 0.0 | 0.0 | 0.00 | 0.61 | 0.00 | 99 | 1020.2 | |
| 20260902065520 | 62 | 0.0 | 0.0 | 0.00 | 0.61 | 0.00 | 99 | 1020.2 | |
| 20260902065019 | 62 | 0.0 | 0.0 | 0.00 | 0.61 | 0.00 | 99 | 1020.3 | |
| 20260902064524 | 62 | 0.0 | 0.0 | 0.00 | 0.61 | 0.00 | 99 | 1020.3 | |
| 20260902064021 | 62 | 0.0 | 0.0 | 0.00 | 0.61 | 0.00 | 99 | 1020.3 | |
| 20260902063521 | 62 | 0.0 | 0.0 | 0.00 | 0.61 | 0.00 | 99 | 1020.4 | |
| 20260902063023 | 62 | 0.0 | 0.0 | 0.00 | 0.61 | 0.00 | 99 | 1020.4 | |
| 20260902062521 | 62 | 0.0 | 0.0 | 0.00 | 0.61 | 0.00 | 99 | 1020.4 | |
| 20260902062020 | 62 | 0.0 | 0.0 | 0.00 | 0.61 | 0.00 | 99 | 1020.3 | |
| 20260902061520 | 62 | 0.0 | 0.0 | 0.00 | 0.61 | 0.00 | 99 | 1020.2 | |
| 20260902061020 | 61 | 0.0 | 0.0 | 0.00 | 0.61 | 0.00 | 99 | 1020.3 | |
| 20260902060520 | 61 | 0.0 | 0.0 | 0.00 | 0.61 | 0.00 | 99 | 1020.4 | |
| 20260902060019 | 61 | 0.0 | 0.0 | 0.00 | 0.61 | 0.00 | 99 | 1020.5 | |
| 20260902055519 | 61 | 0.0 | 0.0 | 0.00 | 0.61 | 0.00 | 99 | 1020.4 | |
| 20260902055019 | 61 | 0.0 | 0.0 | 0.00 | 0.61 | 0.00 | 99 | 1020.2 | |
| 20260902054519 | 61 | 0.0 | 0.0 | 0.00 | 0.61 | 0.00 | 99 | 1020.2 | |
| 20260902054019 | 61 | 0.0 | 0.0 | 0.00 | 0.61 | 0.00 | 99 | 1020.3 | |
| 20260902053519 | 61 | 0.0 | 0.0 | 0.00 | 0.61 | 0.00 | 99 | 1020.3 | |
| 20260902053040 | 61 | 0.0 | 0.0 | 0.00 | 0.61 | 0.00 | 99 | 1020.1 | |
| 20260902052520 | 61 | 0.0 | 0.0 | 0.00 | 0.61 | 0.00 | 99 | 1020.1 | |
| 20260902052020 | 61 | 0.0 | 0.0 | 0.00 | 0.61 | 0.00 | 99 | 1020.2 | |
| 20260902051519 | 61 | 0.0 | 0.0 | 0.00 | 0.61 | 0.00 | 99 | 1020.3 | |
| 20260902051019 | 61 | 0.0 | 0.0 | 0.00 | 0.61 | 0.00 | 99 | 1020.2 | |
| 20260902050521 | 61 | 0.0 | 0.0 | 0.00 | 0.61 | 0.00 | 99 | 1020.2 | |
| 20260902050021 | 61 | 0.0 | 0.0 | 0.00 | 0.61 | 0.00 | 99 | 1020.2 | |
| 20260902045541 | 61 | 0.0 | 0.0 | 0.00 | 0.61 | 0.00 | 99 | 1020.2 | |
| 20260902045020 | 61 | 0.0 | 0.0 | 0.00 | 0.61 | 0.00 | 99 | 1020.0 | |
| 20260902044520 | 61 | 0.0 | 0.0 | 0.00 | 0.61 | 0.00 | 99 | 1019.8 | |
| 20260902044040 | 61 | 0.0 | 0.0 | 0.00 | 0.61 | 0.00 | 99 | 1019.9 | |
| 20260902043520 | 61 | 0.0 | 0.0 | 0.00 | 0.61 | 0.00 | 99 | 1019.8 | |
| 20260902043019 | 61 | 0.0 | 0.0 | 0.00 | 0.61 | 0.00 | 99 | 1019.7 |